Location: B?jaj?g
(11.7167°N, 92.6667°E)
Time: 03:29:24
(UTC+00:00)

Delta 202 - Pass Details

Date: 18 September 2020
Orbit: 781 x 2713 km, 18.5° (Epoch: 18 October)

Event Time Altitude Azimuth Distance (km) Brightness Sun altitude
Exits shadow 22:26:35 29° 294° (WNW) 1,415 4.4 -18.4°
Maximum altitude 22:28:59 49° 352° (N) 997 4.0 -17.8°
Drops below altitude 10° 22:34:14 10° 67° (ENE) 2,418 7.2 -16.6°
Sets 22:37:00 0° 73° (ENE) 3,479 8.5 -15.9°
